Year,Month,Day,Hour,Minute,Value (Times are PST for windgust in km/hr)
2020,11,17,09,14,12.90
2020,11,17,09,15,25.70
2020,11,17,09,16,25.70
2020,11,17,09,17,25.70
2020,11,17,09,18,27.40
2020,11,17,09,19,24.20
2020,11,17,09,20,32.20
2020,11,17,09,21,27.40
2020,11,17,09,22,27.40
2020,11,17,09,23,20.90
2020,11,17,09,24,19.30
2020,11,17,09,25,22.50
2020,11,17,09,26,19.30
2020,11,17,09,27,25.70
2020,11,17,09,28,19.30
2020,11,17,09,29,24.20
2020,11,17,09,30,30.60
2020,11,17,09,31,24.20
2020,11,17,09,32,29.00
2020,11,17,09,33,29.00
2020,11,17,09,34,29.00
2020,11,17,09,35,35.40
2020,11,17,09,36,20.90
2020,11,17,09,37,29.00
2020,11,17,09,38,25.70
2020,11,17,09,39,14.50
2020,11,17,09,40,19.30
2020,11,17,09,41,16.10
2020,11,17,09,42,11.30
2020,11,17,09,43,20.90
2020,11,17,09,44,24.20
2020,11,17,09,45,12.90
2020,11,17,09,46,14.50
2020,11,17,09,47,14.50
2020,11,17,09,48,32.20
2020,11,17,09,49,27.40
2020,11,17,09,50,24.20
2020,11,17,09,51,27.40
2020,11,17,09,52,20.90
2020,11,17,09,53,20.90
2020,11,17,09,54,20.90
2020,11,17,09,55,27.40
2020,11,17,09,56,14.50
2020,11,17,09,57,19.30
2020,11,17,09,58,16.10
2020,11,17,09,59,20.90
2020,11,17,10,00,16.10
2020,11,17,10,01,16.10
2020,11,17,10,02,25.70
2020,11,17,10,03,22.50
2020,11,17,10,04,11.30
2020,11,17,10,05,19.30
2020,11,17,10,06,19.30
2020,11,17,10,07,20.90
2020,11,17,10,08,22.50
2020,11,17,10,09,20.90
2020,11,17,10,10,27.40
2020,11,17,10,11,14.50
2020,11,17,10,12,27.40
2020,11,17,10,13,32.20
2020,11,17,10,14,9.60
2020,11,17,10,15,9.60
2020,11,17,10,16,9.60
2020,11,17,10,17,9.60
2020,11,17,10,18,45.10
2020,11,17,10,19,48.30
2020,11,17,10,20,48.30
2020,11,17,10,21,53.10
2020,11,17,10,22,46.70
2020,11,17,10,23,48.30
2020,11,17,10,24,48.30
2020,11,17,10,25,45.10
2020,11,17,10,26,56.30
2020,11,17,10,27,37.00
2020,11,17,10,28,32.20
2020,11,17,10,29,49.90
2020,11,17,10,30,46.70
2020,11,17,10,31,45.10
2020,11,17,10,32,51.50
2020,11,17,10,33,59.50
2020,11,17,10,34,41.80
2020,11,17,10,35,61.20
2020,11,17,10,36,48.30
2020,11,17,10,37,48.30
2020,11,17,10,38,53.10
2020,11,17,10,39,53.10
2020,11,17,10,40,51.50
2020,11,17,10,41,49.90
2020,11,17,10,42,53.10
2020,11,17,10,43,53.10
2020,11,17,10,44,51.50
2020,11,17,10,45,43.50
2020,11,17,10,46,49.90
2020,11,17,10,47,51.50
2020,11,17,10,48,51.50
2020,11,17,10,49,48.30
2020,11,17,10,50,49.90
2020,11,17,10,51,46.70
2020,11,17,10,52,59.50
2020,11,17,10,53,49.90
2020,11,17,10,54,49.90
2020,11,17,10,55,53.10
2020,11,17,10,56,53.10
2020,11,17,10,57,49.90
2020,11,17,10,58,43.50
2020,11,17,10,59,49.90
2020,11,17,11,00,45.10
2020,11,17,11,01,46.70
2020,11,17,11,02,46.70
2020,11,17,11,03,45.10
2020,11,17,11,04,48.30
2020,11,17,11,05,45.10
2020,11,17,11,06,45.10
2020,11,17,11,07,53.10
2020,11,17,11,08,53.10
2020,11,17,11,09,49.90
2020,11,17,11,10,54.70
2020,11,17,11,11,59.50
2020,11,17,11,12,56.30
2020,11,17,11,13,49.90
2020,11,17,11,14,53.10
2020,11,17,11,15,61.20
2020,11,17,11,16,45.10
2020,11,17,11,17,51.50
2020,11,17,11,18,54.70
2020,11,17,11,19,41.80
2020,11,17,11,20,49.90
2020,11,17,11,21,41.80
2020,11,17,11,22,48.30
2020,11,17,11,23,48.30
2020,11,17,11,24,62.70
2020,11,17,11,25,54.70
2020,11,17,11,26,45.10
2020,11,17,11,27,45.10
2020,11,17,11,28,35.40
2020,11,17,11,29,54.70
2020,11,17,11,30,46.70
2020,11,17,11,31,53.10
2020,11,17,11,32,45.10
2020,11,17,11,33,49.90
2020,11,17,11,34,46.70
2020,11,17,11,35,48.30
2020,11,17,11,36,46.70
2020,11,17,11,37,48.30
2020,11,17,11,38,51.50
2020,11,17,11,39,53.10
2020,11,17,11,40,40.20
2020,11,17,11,41,54.70
2020,11,17,11,42,37.00
2020,11,17,11,43,45.10
2020,11,17,11,44,43.50
2020,11,17,11,45,57.90
2020,11,17,11,46,53.10
2020,11,17,11,47,54.70
2020,11,17,11,48,48.30
2020,11,17,11,49,41.80
2020,11,17,11,50,37.00
2020,11,17,11,51,40.20
2020,11,17,11,52,43.50
2020,11,17,11,53,43.50
2020,11,17,11,54,37.00
2020,11,17,11,55,38.60
2020,11,17,11,56,35.40
2020,11,17,11,57,43.50
2020,11,17,11,58,41.80
2020,11,17,11,59,46.70
2020,11,17,12,00,38.60
2020,11,17,12,01,41.80
2020,11,17,12,02,41.80
2020,11,17,12,03,35.40
2020,11,17,12,04,35.40
2020,11,17,12,05,33.80
2020,11,17,12,06,33.80
2020,11,17,12,07,33.80
2020,11,17,12,08,46.70
2020,11,17,12,09,37.00
2020,11,17,12,10,41.80
2020,11,17,12,11,40.20
2020,11,17,12,12,40.20
2020,11,17,12,13,43.50
2020,11,17,12,14,37.00
2020,11,17,12,15,37.00
2020,11,17,12,16,30.60
2020,11,17,12,17,38.60
2020,11,17,12,18,38.60
2020,11,17,12,19,40.20
2020,11,17,12,20,33.80
2020,11,17,12,21,29.00
2020,11,17,12,22,29.00
2020,11,17,12,23,30.60
2020,11,17,12,24,30.60
2020,11,17,12,25,30.60
2020,11,17,12,26,29.00
2020,11,17,12,27,17.70
2020,11,17,12,28,19.30
2020,11,17,12,29,32.20
2020,11,17,12,30,24.20
2020,11,17,12,31,17.70
2020,11,17,12,32,9.60
2020,11,17,12,33,16.10
2020,11,17,12,34,17.70
2020,11,17,12,35,14.50
2020,11,17,12,36,22.50
2020,11,17,12,37,14.50
2020,11,17,12,38,4.80
2020,11,17,12,39,3.20
2020,11,17,12,40,14.50
2020,11,17,12,41,4.80
2020,11,17,12,42,4.80
2020,11,17,12,43,8.10
2020,11,17,12,44,8.10
2020,11,17,12,45,9.60
2020,11,17,12,46,6.40
2020,11,17,12,47,6.40
2020,11,17,12,48,8.10
2020,11,17,12,49,4.80
2020,11,17,12,50,4.80
2020,11,17,12,51,3.20
2020,11,17,12,52,3.20
2020,11,17,12,53,3.20
2020,11,17,12,54,8.10
2020,11,17,12,55,6.40
2020,11,17,12,56,4.80
2020,11,17,12,57,8.10
2020,11,17,12,58,11.30
2020,11,17,12,59,4.80
2020,11,17,13,00,9.60
2020,11,17,13,01,8.10
2020,11,17,13,02,8.10
2020,11,17,13,03,6.40
2020,11,17,13,04,9.60
2020,11,17,13,05,4.80
2020,11,17,13,06,3.20
2020,11,17,13,07,4.80
2020,11,17,13,08,14.50
2020,11,17,13,09,9.60
2020,11,17,13,10,16.10
2020,11,17,13,11,6.40
2020,11,17,13,12,17.70
2020,11,17,13,13,17.70
2020,11,17,13,14,17.70
2020,11,17,13,15,22.50
2020,11,17,13,16,16.10
2020,11,17,13,17,16.10
2020,11,17,13,18,22.50
2020,11,17,13,19,17.70
2020,11,17,13,20,24.20
2020,11,17,13,21,16.10
2020,11,17,13,22,11.30
2020,11,17,13,23,25.70
2020,11,17,13,24,19.30
2020,11,17,13,25,19.30
2020,11,17,13,26,19.30
2020,11,17,13,27,19.30
2020,11,17,13,28,19.30
2020,11,17,13,29,19.30
2020,11,17,13,30,19.30
2020,11,17,13,31,19.30
2020,11,17,13,32,9.60
2020,11,17,13,33,9.60
2020,11,17,13,34,9.60
2020,11,17,13,35,9.60
2020,11,17,13,36,9.60
2020,11,17,13,37,9.60
2020,11,17,13,38,9.60
2020,11,17,13,39,9.60
2020,11,17,13,40,9.60
2020,11,17,13,41,9.60
2020,11,17,14,32,20.90
2020,11,17,14,33,22.50
2020,11,17,14,34,22.50
2020,11,17,14,35,29.00
2020,11,17,14,36,29.00
2020,11,17,14,37,29.00
2020,11,17,14,38,29.00
2020,11,17,14,39,22.50
2020,11,17,14,40,22.50
2020,11,17,14,41,4.80
2020,11,17,14,42,8.10
2020,11,17,14,43,9.60
2020,11,17,14,44,6.40
2020,11,17,14,45,6.40
2020,11,17,14,46,8.10
2020,11,17,14,47,16.10
2020,11,17,14,48,16.10
2020,11,17,14,49,8.10
2020,11,17,14,50,11.30
2020,11,17,14,51,16.10
2020,11,17,14,52,4.80
2020,11,17,14,53,20.90
2020,11,17,14,54,19.30
2020,11,17,14,55,14.50
2020,11,17,14,56,8.10
2020,11,17,14,57,8.10
2020,11,17,14,58,6.40
2020,11,17,14,59,12.90
2020,11,17,15,00,17.70
2020,11,17,15,01,16.10
2020,11,17,15,02,17.70
2020,11,17,15,03,9.60
2020,11,17,15,04,8.10
2020,11,17,15,05,11.30
2020,11,17,15,06,24.20
2020,11,17,15,07,6.40
2020,11,17,15,08,11.30
2020,11,17,15,09,19.30
2020,11,17,15,10,16.10
2020,11,17,15,11,11.30
2020,11,17,15,12,19.30
2020,11,17,15,13,11.30
2020,11,17,15,14,1.60
2020,11,17,15,15,9.60
2020,11,17,15,16,8.10
2020,11,17,15,17,25.70
2020,11,17,15,18,14.50
2020,11,17,15,19,4.80
2020,11,17,15,20,9.60
2020,11,17,15,21,19.30
2020,11,17,15,22,17.70
2020,11,17,15,23,11.30
2020,11,17,15,24,11.30
2020,11,17,15,25,12.90
2020,11,17,15,26,11.30
2020,11,17,15,27,14.50
2020,11,17,15,28,11.30
2020,11,17,15,29,16.10
2020,11,17,15,30,24.20
2020,11,17,15,31,9.60
2020,11,17,15,32,14.50
2020,11,17,15,33,19.30
2020,11,17,15,34,9.60
2020,11,17,15,35,14.50
2020,11,17,15,36,16.10
2020,11,17,15,37,11.30
2020,11,17,15,38,14.50
2020,11,17,15,39,29.00
2020,11,17,15,40,22.50
2020,11,17,15,41,22.50
2020,11,17,15,42,22.50
2020,11,17,15,43,22.50
2020,11,17,15,44,22.50
2020,11,17,15,45,22.50
2020,11,17,15,46,22.50
2020,11,17,15,47,22.50
2020,11,17,15,48,22.50
2020,11,17,15,49,22.50
2020,11,17,16,41,37.00
2020,11,17,16,42,37.00
2020,11,17,16,43,30.60
2020,11,17,16,44,22.50
2020,11,17,16,45,25.70
2020,11,17,16,46,25.70
2020,11,17,16,47,25.70
2020,11,17,16,48,25.70
2020,11,17,16,49,25.70
2020,11,17,16,50,25.70
2020,11,17,16,51,25.70
2020,11,17,16,52,25.70
2020,11,17,16,53,25.70
2020,11,17,16,54,30.60
2020,11,17,16,55,30.60
2020,11,17,16,56,20.90
2020,11,17,16,57,20.90
2020,11,17,16,58,24.20
2020,11,17,16,59,22.50
2020,11,17,17,00,24.20
2020,11,17,17,01,22.50
2020,11,17,17,02,17.70
2020,11,17,17,03,14.50
2020,11,17,17,04,24.20
2020,11,17,17,05,22.50
2020,11,17,17,06,17.70
2020,11,17,17,07,17.70
2020,11,17,17,08,17.70
2020,11,17,17,09,19.30
2020,11,17,17,10,16.10
2020,11,17,17,11,16.10
2020,11,17,17,12,16.10
2020,11,17,17,13,16.10
2020,11,17,17,14,16.10
2020,11,17,17,15,16.10
2020,11,17,17,16,16.10
2020,11,17,17,17,16.10
2020,11,17,17,18,16.10
2020,11,17,17,19,16.10
